Portada
METAR-TAF:

METAR-TAF

Aeroports :

Ulurú, Austràlia

latitud: 25-11-10S, longitud: 130-58-32E, altitud: 496 m

Observació

L'informe es va fer fa 1 hora i 8 minuts, a les 13:00 UTC
Vent 8 kt del Est/Sud-Est
Temperatura 23°C
Humitat 29%
Pressió 1018 hPa
Visibilitat 10 km o més
Cel cobert a una alçada de 9200 ft

METAR: YAYE 071300Z AUTO 12008KT 9999 // OVC092 23/04 Q1018

Hora: 23:38 (14:08 UTC)


TAF: manca

Observacions i pronòstics meteorològics de més de 4000 aeroports (METAR i TAF).

Les estacions disponibles són els punts grocs i vermells al mapa.

Posi el ratolí al punt desitjat per veure el nom de l'estació.

Feu clic per veure les observacions i els pronòstics meteorològics.

Per canviar el mapa: feu clic els botons verds amb una creu de color negre per apropar; al botó verd amb un guió per allunyar la imatge; o en les fletxes verdes per a mapes adjacents.


METAR-TAF: